Lid_Strength_Index
5 7 7 6 11 14 16 13 12 11 10 10 8 9 9 8 9 11 7 7 6 6 4 3 1 -1 -1 -1 -1 -1 -1 -1 -1 -1 -1 -1 -1 -1 -1 -1 -1 -2 -2 -2 -2 -2 -2 -2 -2
6 5 4 8 14 16 16 14 13 11 11 10 9 9 9 10 8 9 9 8 6 6 5 5 2 1 -1 -1 -1 -1 -1 -1 -1 -1 -1 -1 -1 -1 -1 -1 -2 -2 -2 -2 -2 -2 -2 -2 -2
5 5 7 10 14 17 17 14 13 11 10 10 11 9 9 9 10 10 9 8 8 7 5 4 4 2 0 -1 -1 -1 -1 -1 -1 -1 -1 -1 -1 -1 -2 -2 -2 -2 -2 -2 -2 -2 -2 -2 -2
7 7 9 13 15 13 14 13 11 11 10 9 10 11 7 7 8 9 8 8 8 8 5 3 3 5 3 2 -1 -1 -1 -1 -1 -1 -1 -1 -1 -1 -1 -1 -2 -2 -2 -2 -2 -2 -1 -2 -2
8 10 14 16 15 14 13 12 12 12 12 11 11 13 10 9 9 8 8 7 7 7 5 4 2 5 5 4 3 -0 -1 -1 -1 -1 -1 -1 -1 -1 -1 -1 -2 -2 -2 -1 -1 -2 -2 -2 -2
11 13 17 18 16 14 14 13 13 13 13 13 13 14 11 9 9 9 8 8 7 7 5 3 2 3 5 5 6 3 0 -1 -1 -1 -1 -1 -1 -1 -1 -1 -1 -2 -2 -2 -1 -1 -1 -1 -2
13 15 18 18 16 15 14 13 14 15 14 14 13 15 11 11 9 8 8 8 7 6 6 6 5 4 3 4 4 5 3 1 -1 -1 -1 -1 -1 -1 -1 -1 -1 -1 -2 -2 -1 -1 -1 -1 -2
12 14 17 18 17 16 14 14 15 15 15 13 13 15 15 13 9 8 8 7 7 7 7 7 6 5 5 4 4 3 3 3 1 -0 1 1 1 0 0 1 -0 -1 -1 -1 -1 -1 -1 -1 -1
12 17 19 18 17 16 14 15 14 13 15 14 13 14 11 9 8 9 9 9 8 7 7 7 6 6 5 5 4 4 3 3 2 1 1 2 0 -0 0 1 0 -1 -1 -1 -1 -1 -1 -1 -0
14 18 17 16 17 17 15 15 14 14 14 14 13 10 9 8 9 9 10 10 10 9 8 7 7 6 5 5 5 4 2 3 2 0 -0 0 0 -0 -0 1 2 1 0 -0 -1 -1 -0 0 -0
14 17 15 15 13 13 13 13 12 14 15 14 13 11 10 9 9 9 10 10 9 9 8 7 7 7 7 6 5 4 3 2 2 2 -0 -0 -0 0 0 0 0 0 2 -0 -0 -0 -0 0 1
15 13 13 12 11 12 13 12 13 13 13 11 11 10 10 10 9 9 10 10 10 10 9 8 8 8 7 6 5 5 4 2 1 3 2 0 0 0 0 1 0 0 0 0 0 0 1 1 1
14 13 11 11 11 12 11 13 13 12 11 10 10 9 10 10 10 10 10 9 10 10 9 9 8 8 8 7 6 5 5 4 2 1 2 2 0 1 0 0 0 0 0 0 0 1 1 1 2
13 12 12 11 11 11 12 13 13 12 11 11 10 10 10 10 10 11 10 10 10 10 10 9 9 8 8 8 8 7 5 5 4 2 2 3 2 1 0 0 0 1 0 0 0 1 2 2 2
12 14 13 12 12 12 12 14 14 12 11 11 10 10 10 10 10 10 10 10 10 10 10 9 9 9 8 8 8 7 6 5 4 3 1 2 3 3 2 0 0 0 0 0 1 1 1 2 3
14 15 18 13 12 12 13 18 12 11 12 12 12 11 11 10 9 9 8 9 9 9 10 9 8 9 9 8 8 7 6 6 5 4 3 2 1 2 2 2 0 -0 0 0 1 2 2 3 3
17 23 19 16 12 12 14 16 12 11 11 13 13 12 11 10 9 8 8 9 8 9 9 8 8 8 8 8 7 7 6 6 5 5 4 2 1 0 1 1 0 0 0 0 1 2 2 3 3
23 22 18 18 14 12 14 15 12 12 12 12 13 12 10 10 9 8 9 9 9 9 9 8 8 7 7 7 6 6 6 6 5 5 4 2 2 1 1 0 0 0 1 1 1 1 2 2 3
16 18 19 16 12 15 15 15 13 12 12 12 12 12 11 11 10 10 10 10 10 10 9 9 9 9 8 8 8 8 7 6 5 5 4 3 2 1 0 0 0 0 1 1 1 1 2 3 3
17 21 21 16 13 15 16 16 13 11 12 12 12 13 12 12 11 11 10 10 10 10 10 9 9 9 7 8 8 7 7 6 4 4 4 2 2 1 0 1 1 1 1 1 1 1 2 2 3
18 20 20 18 16 15 17 18 14 12 11 11 12 13 12 12 12 11 11 11 11 11 10 9 8 8 8 8 7 6 6 5 5 4 4 2 1 1 1 1 1 1 1 1 1 1 2 3 2
22 15 16 17 22 25 16 25 16 13 13 12 13 14 13 13 12 12 11 11 11 10 10 9 8 7 7 6 7 7 7 7 5 4 3 1 0 0 1 1 1 1 1 1 1 1 1 2 3
18 14 16 16 24 21 21 24 17 14 15 15 14 13 13 13 13 12 12 11 10 10 10 9 8 7 6 6 6 6 6 5 5 4 4 3 1 0 0 1 1 1 1 1 1 1 1 1 2
13 17 18 19 24 28 23 22 19 17 16 16 14 14 13 13 13 13 12 11 11 11 10 9 8 7 6 6 5 5 6 4 5 5 4 3 1 1 1 1 1 1 1 1 1 1 1 1 2
18 24 29 28 28 25 25 21 18 15 15 15 15 14 14 13 14 14 14 13 12 11 10 9 8 8 7 6 5 4 4 4 5 5 4 3 2 1 2 1 1 1 1 1 1 1 1 1 2
19 23 27 33 29 26 25 24 18 14 14 14 14 14 14 14 14 14 14 13 12 12 11 10 9 9 8 6 6 5 3 3 3 3 3 3 3 2 2 2 2 2 1 2 1 1 1 1 1
20 24 18 28 29 26 25 20 15 14 18 16 15 15 15 15 15 14 14 13 13 12 12 11 10 9 9 8 6 6 5 4 4 4 4 4 2 1 3 2 2 1 3 3 2 1 1 1 1
20 17 25 26 30 31 26 26 20 21 21 19 16 17 17 16 16 14 14 14 13 12 12 11 10 10 9 8 7 6 6 5 5 4 5 4 3 3 3 5 4 4 4 3 3 2 1 2 2
23 24 23 23 22 28 29 24 19 20 21 21 18 18 19 19 17 16 14 14 13 13 13 12 12 11 10 9 8 7 7 6 6 5 5 4 4 5 4 5 5 4 5 5 4 4 2 3 4
18 21 18 24 28 23 22 21 20 20 20 20 18 18 18 21 18 15 15 14 14 14 14 13 12 12 11 10 9 8 8 8 7 7 6 6 6 6 6 6 6 6 5 6 6 7 6 7 8